{"data":{"norad_id":50473,"epoch":"2026-05-25T02:57:42.124608Z","epoch_age_seconds":58395,"freshness":"FRESH","line1":"1 50473U 21132E   26145.12340422  .00000040  00000+0  70595-4 0  9997","line2":"2 50473  87.9153  10.4508 0001976  87.1565 272.9793 13.17648878215074","mean_motion":13.17648878,"eccentricity":0.0001976,"inclination_deg":87.9153,"raan_deg":10.4508,"arg_perigee_deg":87.1565,"mean_anomaly_deg":272.9793,"bstar":7.0595e-5,"rev_number":21507,"period_min":109.28556340333,"perigee_km":1192.2175295408,"apogee_km":1195.2099249482,"semimajor_km":7571.8507272445,"source":"CELESTRAK","updated_at":"2026-05-25T13:38:22.528546Z"}}